Location: Newark
(52.2352°N, 0.6006°W)
Time: 08:30:36
(UTC+00:00)

ISS - Visible Passes

Search period start: 18 January 2020 00:00
Search period end: 28 January 2020 00:00
Orbit: 415 x 421 km, 51.6° (Epoch: 18 January)

Date Brightness Start Highest point End Pass type
(mag) Time Alt. Az. Time Alt. Az. Time Alt. Az.
21 Jan -1.3 18:13:30 10° SSE 18:14:05 11° SE 18:14:05 11° SE visible
22 Jan -1.7 18:59:39 10° SSW 19:01:13 21° SSW 19:01:13 21° SSW visible
23 Jan -2.2 18:12:07 10° SSW 18:14:47 22° SSE 18:15:21 21° SE visible
23 Jan -0.6 19:47:50 10° WSW 19:48:17 13° WSW 19:48:17 13° WSW visible
24 Jan -1.6 17:24:51 10° S 17:26:57 16° SE 17:29:02 10° ESE visible
24 Jan -2.6 18:59:55 10° WSW 19:02:20 39° SSW 19:02:20 39° SSW visible
25 Jan -3.0 18:12:04 10° SW 18:15:14 39° SSE 18:16:20 29° ESE visible
25 Jan -0.8 19:48:27 10° W 19:49:16 16° W 19:49:16 16° W visible
26 Jan -2.4 17:24:20 10° SSW 17:27:18 29° SSE 17:30:16 10° E visible
26 Jan -3.2 19:00:25 10° WSW 19:03:14 56° SW 19:03:14 56° SW visible
27 Jan -3.6 18:12:26 10° WSW 18:15:46 63° SSE 18:17:09 31° E visible
27 Jan -0.9 19:49:06 10° W 19:50:05 18° W 19:50:05 18° W visible
